If you wish to contribute or participate in the discussions about articles you are invited to join SKYbrary as a registered user

 Actions

Angoon Seaplane Base

From SKYbrary Wiki

PAGN
Airport
ICAO: PAGN – IATA: AGN
Summary
Name Angoon Seaplane Base
Region North America
Territory Alaska US.gif
Location Angoon, Alaska
Serving Angoon
Type seaplane base
Coordinates 57° 30' 12.9996", -134° 35' 6"
Close to Coastal Waters Of Southeast Alaska And British Columbia
Runways
Designator Length Width Surface ROPS
NW/SE 3048 m10,000 ft 274 m898.95 ft WATER /


METAR
Observation PAGN 242056Z AUTO 10007KT 7SM -SN BKN035 OVC044 00/M01 A2945 RMK AO2 PRESFR SLP961 P0000 60000 T00001011 56051 FZRANO
Station Angoon
Date/Time 24 February 2018 20:56:00
Wind direction 100°
Wind speed 07 kts
Lowest cloud amount broken clouds
Temperature 0°C
Dew point
Humidity 92%
QNH hPa
Weather condition light snow

Maps

Terrain

Loading map...

Airport Layout

Loading map...


Accidents & Serious Incidents at or in vicinity of PAGN

None on SKYbrary